map of GOJ home
Great Circle Mapper logo
GOJ - Airport
Location
City:  Nizhniy Novgorod, Russian Federation (Russia)
Name:Strigino
ICAO / IATA:UWGG / GOJ

Details
Type:Airport (Aerodrome, Airfield)
Use:Public/Civil
Latitude:5613'48"N (56.230119)
Longitude:4347'03"E (43.784042)
Datum:WGS 1984
Elevation:256 ft (78 m)
Runways:4
Longest:9203 × 148 ft (2805 × 45 m), paved

Time
Time Zone:UTC+3 (DST+4)

Weather
METAR:UWGG 302230Z 20002MPS 5000 FU FEW050 BKN100 05/M03 Q1018 NOSIG 18090060 RMK QFE756
TAF:UWGG 301955Z 3021/3121 21003MPS 2100 -SHRA BR BKN009 SCT015CB

Related Locations
Nearby:
Farthest:CHT: 10486 mi / 16875 km
Waitangi [Tuuta], Chatham Islands, NZ

Find:

   beyond  
but within

Other Information
Maps:
NOTAMs:
Links:
Sources:

  
flag of Russian Federation (Russia)   

Sectional Chart

Flight Planning
at skyvector.com

Satellite Image

Google Maps Satellite View

 

Copyright © 2004-2014 Karl L. Swartz. All rights reserved.
The Great Circle Mapper name and logo are trademarks of the Great Circle Mapper.
All other trademarks mentioned herein belong to their respective owners.
Please see credits for attibutions and further copyright information.

  Follow gcmap on Facebook Follow gcmap on Twitter

hCard Microformat

Geo Microformat